Location: ???????
(55.8719°N, 38.1523°E)
Time: 19:46:14
(UTC+00:00)

Cosmos 44 Rocket - Pass Details

Date: 14 April 2024
Orbit: 641 x 743 km, 65.1° (Epoch: 18 May)

Event Time Altitude Azimuth Distance (km) Brightness Sun altitude
Exits shadow 00:10:13 28° 211° (SSW) 1,389 4.3 -16.4°
Maximum altitude 00:13:00 72° 133° (SE) 784 3.5 -16.2°
Drops below altitude 10° 00:18:08 10° 50° (NE) 2,245 7.3 -15.7°
Sets 00:20:30 0° 48° (NE) 3,159 8.6 -15.5°
